| time (UTC) | temp F | wind direction | speed knots | gust knots | rain 1hr in | rain 24hr in | rain mn in | humidity % | barometer mb |
| 20260906223537 | 103 | 113 | 3.5 | 5.2 | 0.00 | 0.00 | 0.00 | 40 | 1011.8 |
| 20260906223040 | 102 | 135 | 5.2 | 11.3 | 0.00 | 0.00 | 0.00 | 38 | 1011.8 |
| 20260906222537 | 102 | 113 | 5.2 | 9.6 | 0.00 | 0.00 | 0.00 | 39 | 1011.8 |
| 20260906222033 | 102 | 158 | 5.2 | 10.4 | 0.00 | 0.00 | 0.00 | 39 | 1011.8 |
| 20260906221553 | 101 | 203 | 4.3 | 11.3 | 0.00 | 0.00 | 0.00 | 39 | 1011.8 |
| 20260906221024 | 101 | 225 | 3.5 | 6.1 | 0.00 | 0.00 | 0.00 | 39 | 1011.8 |
| 20260906220522 | 102 | 113 | 4.3 | 9.6 | 0.00 | 0.00 | 0.00 | 39 | 1011.8 |
| 20260906220022 | 102 | 158 | 3.5 | 7.8 | 0.00 | 0.00 | 0.00 | 40 | 1011.9 |
| 20260906215524 | 103 | 135 | 3.5 | 7.8 | 0.00 | 0.00 | 0.00 | 41 | 1012.0 |
| 20260906215042 | 103 | 113 | 5.2 | 11.3 | 0.00 | 0.00 | 0.00 | 40 | 1012.0 |
| 20260906214522 | 103 | 113 | 3.5 | 8.7 | 0.00 | 0.00 | 0.00 | 39 | 1012.1 |
| 20260906214022 | 103 | 90 | 5.2 | 8.7 | 0.00 | 0.00 | 0.00 | 38 | 1012.1 |
| 20260906213547 | 104 | 135 | 4.3 | 9.6 | 0.00 | 0.00 | 0.00 | 38 | 1012.2 |
| 20260906213045 | 103 | 135 | 7.0 | 13.0 | 0.00 | 0.00 | 0.00 | 38 | 1012.3 |
| 20260906212605 | 103 | 68 | 3.5 | 7.0 | 0.00 | 0.00 | 0.00 | 38 | 1012.4 |
| 20260906212043 | 102 | 113 | 4.3 | 8.7 | 0.00 | 0.00 | 0.00 | 39 | 1012.5 |
| 20260906211543 | 102 | 113 | 6.1 | 9.6 | 0.00 | 0.00 | 0.00 | 39 | 1012.6 |
| 20260906211141 | 102 | 135 | 4.3 | 10.4 | 0.00 | 0.00 | 0.00 | 40 | 1012.7 |
| 20260906210537 | 101 | 158 | 6.1 | 12.2 | 0.00 | 0.00 | 0.00 | 40 | 1012.8 |
| 20260906210035 | 100 | 90 | 3.5 | 7.0 | 0.00 | 0.00 | 0.00 | 42 | 1012.8 |
| 20260906205535 | 100 | 135 | 4.3 | 7.0 | 0.00 | 0.00 | 0.00 | 41 | 1012.9 |
| 20260906205033 | 100 | 135 | 6.1 | 12.2 | 0.00 | 0.00 | 0.00 | 41 | 1012.9 |
| 20260906204533 | 101 | 135 | 4.3 | 10.4 | 0.00 | 0.00 | 0.00 | 41 | 1013.1 |
| 20260906204041 | 102 | 203 | 4.3 | 7.8 | 0.00 | 0.00 | 0.00 | 40 | 1013.1 |
| 20260906203521 | 102 | 225 | 4.3 | 8.7 | 0.00 | 0.00 | 0.00 | 39 | 1013.1 |
| 20260906203022 | 102 | 135 | 4.3 | 9.6 | 0.00 | 0.00 | 0.00 | 39 | 1013.2 |
| 20260906202521 | 103 | 180 | 4.3 | 11.3 | 0.00 | 0.00 | 0.00 | 39 | 1013.2 |
| 20260906202021 | 103 | 203 | 3.5 | 7.8 | 0.00 | 0.00 | 0.00 | 37 | 1013.3 |
| 20260906201521 | 103 | 135 | 5.2 | 14.8 | 0.00 | 0.00 | 0.00 | 39 | 1013.3 |
| 20260906201022 | 103 | 135 | 5.2 | 14.8 | 0.00 | 0.00 | 0.00 | 40 | 1013.5 |
| 20260906200548 | 102 | 135 | 5.2 | 9.6 | 0.00 | 0.00 | 0.00 | 40 | 1013.5 |
| 20260906200047 | 102 | 135 | 7.0 | 13.0 | 0.00 | 0.00 | 0.00 | 42 | 1013.6 |
| 20260906195543 | 101 | 135 | 4.3 | 13.9 | 0.00 | 0.00 | 0.00 | 41 | 1013.5 |
| 20260906195044 | 101 | 113 | 2.6 | 6.1 | 0.00 | 0.00 | 0.00 | 41 | 1013.7 |
| 20260906194541 | 101 | 113 | 3.5 | 7.0 | 0.00 | 0.00 | 0.00 | 41 | 1013.7 |
| 20260906194105 | 101 | 135 | 4.3 | 9.6 | 0.00 | 0.00 | 0.00 | 41 | 1013.7 |
| 20260906193539 | 101 | 113 | 5.2 | 9.6 | 0.00 | 0.00 | 0.00 | 42 | 1013.9 |
| 20260906193025 | 101 | 135 | 4.3 | 9.6 | 0.00 | 0.00 | 0.00 | 40 | 1013.8 |
| 20260906192535 | 101 | 135 | 5.2 | 9.6 | 0.00 | 0.00 | 0.00 | 40 | 1014.0 |
| 20260906192033 | 103 | 158 | 6.1 | 12.2 | 0.00 | 0.00 | 0.00 | 38 | 1014.1 |
| 20260906191533 | 103 | 135 | 5.2 | 11.3 | 0.00 | 0.00 | 0.00 | 40 | 1014.1 |
| 20260906191023 | 102 | 135 | 6.1 | 12.2 | 0.00 | 0.00 | 0.00 | 41 | 1014.1 |
| 20260906190522 | 100 | 90 | 4.3 | 7.0 | 0.00 | 0.00 | 0.00 | 42 | 1014.1 |
| 20260906190042 | 100 | 90 | 4.3 | 7.8 | 0.00 | 0.00 | 0.00 | 43 | 1014.2 |
| 20260906185522 | 101 | 90 | 6.1 | 17.4 | 0.00 | 0.00 | 0.00 | 41 | 1014.3 |
| 20260906185023 | 101 | 113 | 6.1 | 17.4 | 0.00 | 0.00 | 0.00 | 40 | 1014.2 |
| 20260906184522 | 100 | 90 | 0.9 | 3.5 | 0.00 | 0.00 | 0.00 | 42 | 1014.4 |
| 20260906184049 | 100 | 90 | 3.5 | 7.8 | 0.00 | 0.00 | 0.00 | 42 | 1014.5 |
| 20260906183537 | 101 | 113 | 5.2 | 8.7 | 0.00 | 0.00 | 0.00 | 41 | 1014.6 |
| 20260906183044 | 102 | 90 | 4.3 | 10.4 | 0.00 | 0.00 | 0.00 | 40 | 1014.6 |
| 20260906182545 | 102 | 135 | 5.2 | 8.7 | 0.00 | 0.00 | 0.00 | 39 | 1014.6 |
| 20260906182044 | 101 | 135 | 7.0 | 12.2 | 0.00 | 0.00 | 0.00 | 41 | 1014.6 |
| 20260906181542 | 100 | 90 | 5.2 | 9.6 | 0.00 | 0.00 | 0.00 | 43 | 1014.7 |
| 20260906181039 | 101 | 113 | 7.0 | 10.4 | 0.00 | 0.00 | 0.00 | 40 | 1014.8 |
| 20260906180536 | 102 | 158 | 3.5 | 9.6 | 0.00 | 0.00 | 0.00 | 40 | 1014.8 |
| 20260906180034 | 102 | 135 | 7.0 | 15.6 | 0.00 | 0.00 | 0.00 | 41 | 1015.0 |
| 20260906175534 | 102 | 203 | 4.3 | 9.6 | 0.00 | 0.00 | 0.00 | 40 | 1015.0 |
| 20260906175023 | 101 | 135 | 5.2 | 8.7 | 0.00 | 0.00 | 0.00 | 41 | 1015.2 |
| 20260906174533 | 100 | 135 | 6.1 | 11.3 | 0.00 | 0.00 | 0.00 | 42 | 1015.3 |
| 20260906174021 | 101 | 203 | 4.3 | 8.7 | 0.00 | 0.00 | 0.00 | 41 | 1015.4 |
| 20260906173543 | 101 | 135 | 6.1 | 12.2 | 0.00 | 0.00 | 0.00 | 44 | 1015.5 |
| 20260906173022 | 100 | 135 | 4.3 | 9.6 | 0.00 | 0.00 | 0.00 | 42 | 1015.6 |
| 20260906172522 | 100 | 135 | 4.3 | 8.7 | 0.00 | 0.00 | 0.00 | 44 | 1015.6 |
| 20260906172022 | 100 | 158 | 5.2 | 9.6 | 0.00 | 0.00 | 0.00 | 41 | 1015.6 |
| 20260906171521 | 100 | 135 | 3.5 | 7.8 | 0.00 | 0.00 | 0.00 | 44 | 1015.7 |
| 20260906171022 | 100 | 90 | 4.3 | 10.4 | 0.00 | 0.00 | 0.00 | 44 | 1015.8 |
| 20260906170522 | 100 | 68 | 5.2 | 10.4 | 0.00 | 0.00 | 0.00 | 45 | 1015.9 |
| 20260906170022 | 99 | 90 | 4.3 | 7.8 | 0.00 | 0.00 | 0.00 | 45 | 1015.9 |
| 20260906165602 | 99 | 113 | 7.0 | 11.3 | 0.00 | 0.00 | 0.00 | 45 | 1016.0 |
| 20260906165022 | 100 | 135 | 4.3 | 9.6 | 0.00 | 0.00 | 0.00 | 44 | 1015.9 |
| 20260906164540 | 99 | 135 | 2.6 | 6.1 | 0.00 | 0.00 | 0.00 | 48 | 1015.9 |
| 20260906164038 | 99 | 135 | 3.5 | 8.7 | 0.00 | 0.00 | 0.00 | 46 | 1015.9 |
| 20260906163537 | 98 | 113 | 3.5 | 8.7 | 0.00 | 0.00 | 0.00 | 48 | 1015.9 |
| 20260906163037 | 98 | 113 | 3.5 | 8.7 | 0.00 | 0.00 | 0.00 | 48 | 1016.0 |
| 20260906162534 | 98 | 158 | 4.3 | 8.7 | 0.00 | 0.00 | 0.00 | 47 | 1016.0 |
| 20260906162032 | 98 | 135 | 5.2 | 9.6 | 0.00 | 0.00 | 0.00 | 47 | 1015.9 |
| 20260906161555 | 98 | 113 | 3.5 | 7.8 | 0.00 | 0.00 | 0.00 | 50 | 1015.9 |
| 20260906161021 | 97 | 113 | 2.6 | 7.0 | 0.00 | 0.00 | 0.00 | 50 | 1015.9 |
| 20260906160541 | 96 | 113 | 3.5 | 7.8 | 0.00 | 0.00 | 0.00 | 50 | 1015.9 |
| 20260906160021 | 96 | 113 | 2.6 | 3.5 | 0.00 | 0.00 | 0.00 | 51 | 1015.9 |
| 20260906155521 | 95 | 113 | 3.5 | 7.8 | 0.00 | 0.00 | 0.00 | 52 | 1015.9 |
| 20260906155022 | 95 | 113 | 4.3 | 7.8 | 0.00 | 0.00 | 0.00 | 52 | 1015.9 |
| 20260906154823 | 95 | 90 | 2.6 | 4.3 | 0.00 | 0.00 | 0.00 | 56 | 1016.0 |
| 20260906154022 | 94 | 90 | 3.5 | 6.1 | 0.00 | 0.00 | 0.00 | 53 | 1015.9 |
| 20260906153521 | 94 | 45 | 1.7 | 3.5 | 0.00 | 0.00 | 0.00 | 56 | 1015.8 |
| 20260906153025 | 94 | 45 | 1.7 | 6.1 | 0.00 | 0.00 | 0.00 | 58 | 1015.8 |
| 20260906152521 | 93 | 23 | 2.6 | 4.3 | 0.00 | 0.00 | 0.00 | 60 | 1015.8 |
| 20260906152021 | 92 | 45 | 2.6 | 4.3 | 0.00 | 0.00 | 0.00 | 61 | 1015.7 |
| 20260906151521 | 91 | 45 | 2.6 | 4.3 | 0.00 | 0.00 | 0.00 | 63 | 1015.6 |
| 20260906151057 | 91 | 158 | 1.7 | 3.5 | 0.00 | 0.00 | 0.00 | 65 | 1015.6 |
| 20260906150536 | 90 | 158 | 1.7 | 3.5 | 0.00 | 0.00 | 0.00 | 65 | 1015.6 |
| 20260906150058 | 90 | 158 | 0.9 | 1.7 | 0.00 | 0.00 | 0.00 | 63 | 1015.8 |
| 20260906145534 | 90 | 158 | 0.9 | 1.7 | 0.00 | 0.00 | 0.00 | 64 | 1015.8 |
| 20260906145032 | 90 | 158 | 0.9 | 1.7 | 0.00 | 0.00 | 0.00 | 63 | 1015.9 |
| 20260906144612 | 89 | 158 | 1.7 | 3.5 | 0.00 | 0.00 | 0.00 | 64 | 1015.9 |
| 20260906144021 | 89 | 158 | 1.7 | 3.5 | 0.00 | 0.00 | 0.00 | 67 | 1015.9 |
| 20260906143537 | 88 | 158 | 1.7 | 3.5 | 0.00 | 0.00 | 0.00 | 69 | 1015.9 |
| 20260906143442 | 87 | 158 | 2.6 | 6.1 | 0.00 | 0.00 | 0.00 | 71 | 1015.9 |
| 20260906142552 | 86 | 158 | 2.6 | 4.3 | 0.00 | 0.00 | 0.00 | 72 | 1015.9 |
| 20260906142052 | 86 | 113 | 1.7 | 3.5 | 0.00 | 0.00 | 0.00 | 73 | 1015.8 |
| 20260906141543 | 85 | 113 | 0.9 | 2.6 | 0.00 | 0.00 | 0.00 | 73 | 1015.8 |
| 20260906141048 | 85 | 113 | 1.7 | 2.6 | 0.00 | 0.00 | 0.00 | 74 | 1015.8 |
| 20260906140546 | 84 | 113 | 0.9 | 2.6 | 0.00 | 0.00 | 0.00 | 76 | 1015.8 |
| 20260906140045 | 84 | 113 | 1.7 | 3.5 | 0.00 | 0.00 | 0.00 | 76 | 1015.7 |
| 20260906135544 | 83 | 113 | 1.7 | 2.6 | 0.00 | 0.00 | 0.00 | 77 | 1015.7 |
| 20260906135040 | 82 | 113 | 0.9 | 1.7 | 0.00 | 0.00 | 0.00 | 78 | 1015.6 |
| 20260906134529 | 82 | 113 | 0.9 | 1.7 | 0.00 | 0.00 | 0.00 | 77 | 1015.5 |
| 20260906134040 | 82 | 113 | 0.9 | 2.6 | 0.00 | 0.00 | 0.00 | 78 | 1015.7 |
| 20260906133610 | 81 | 113 | 1.7 | 2.6 | 0.00 | 0.00 | 0.00 | 79 | 1015.7 |
| 20260906133358 | 81 | 113 | 2.6 | 5.2 | 0.00 | 0.00 | 0.00 | 80 | 1015.6 |
| 20260906132604 | 80 | 225 | 1.7 | 3.5 | 0.00 | 0.00 | 0.00 | 81 | 1015.6 |
| 20260906132102 | 79 | 225 | 1.7 | 3.5 | 0.00 | 0.00 | 0.00 | 81 | 1015.6 |
| 20260906131600 | 79 | 225 | 0.9 | 2.6 | 0.00 | 0.00 | 0.00 | 82 | 1015.6 |
| 20260906131058 | 78 | 225 | 1.7 | 2.6 | 0.00 | 0.00 | 0.00 | 83 | 1015.6 |
| 20260906130558 | 78 | 0.0 | 1.7 | 0.00 | 0.00 | 0.00 | 83 | 1015.5 | |
| 20260906130116 | 77 | 0.0 | 0.0 | 0.00 | 0.00 | 0.00 | 85 | 1015.3 | |
| 20260906125540 | 77 | 0.0 | 0.0 | 0.00 | 0.00 | 0.00 | 84 | 1015.4 | |
| 20260906125052 | 77 | 0.0 | 0.0 | 0.00 | 0.00 | 0.00 | 84 | 1015.4 | |
| 20260906124630 | 77 | 0.0 | 0.0 | 0.00 | 0.00 | 0.00 | 85 | 1015.3 | |
| 20260906124048 | 76 | 0.0 | 0.0 | 0.00 | 0.00 | 0.00 | 85 | 1015.2 | |
| 20260906123546 | 76 | 0.0 | 0.0 | 0.00 | 0.00 | 0.00 | 85 | 1015.2 | |
| 20260906123046 | 76 | 0.0 | 0.9 | 0.00 | 0.00 | 0.00 | 85 | 1015.2 | |
| 20260906122544 | 76 | 0.0 | 0.0 | 0.00 | 0.00 | 0.00 | 85 | 1015.2 | |
| 20260906122042 | 76 | 0.0 | 0.0 | 0.00 | 0.00 | 0.00 | 84 | 1015.2 | |
| 20260906121540 | 76 | 0.0 | 0.0 | 0.00 | 0.00 | 0.00 | 84 | 1015.1 | |
| 20260906121100 | 76 | 0.0 | 1.7 | 0.00 | 0.00 | 0.00 | 84 | 1015.1 | |
| 20260906120524 | 76 | 0.0 | 1.7 | 0.00 | 0.00 | 0.00 | 84 | 1015.1 | |
| 20260906120035 | 77 | 0.0 | 1.7 | 0.00 | 0.00 | 0.00 | 83 | 1015.1 | |
| 20260906115536 | 77 | 0.0 | 1.7 | 0.00 | 0.00 | 0.00 | 83 | 1015.1 | |
| 20260906115033 | 77 | 225 | 0.9 | 1.7 | 0.00 | 0.00 | 0.00 | 82 | 1015.0 |
| 20260906114533 | 77 | 225 | 0.9 | 1.7 | 0.00 | 0.00 | 0.00 | 82 | 1015.0 |
| 20260906114021 | 77 | 225 | 0.9 | 1.7 | 0.00 | 0.00 | 0.00 | 82 | 1015.0 |
| 20260906113521 | 77 | 0.0 | 1.7 | 0.00 | 0.00 | 0.00 | 82 | 1015.0 | |
| 20260906113021 | 77 | 225 | 0.9 | 1.7 | 0.00 | 0.00 | 0.00 | 82 | 1015.1 |
| 20260906112521 | 77 | 225 | 0.9 | 1.7 | 0.00 | 0.00 | 0.00 | 82 | 1014.9 |
| 20260906112041 | 77 | 0.0 | 1.7 | 0.00 | 0.00 | 0.00 | 82 | 1014.8 | |
| 20260906111521 | 77 | 0.0 | 0.9 | 0.00 | 0.00 | 0.00 | 81 | 1014.7 | |
| 20260906111048 | 77 | 0.0 | 0.9 | 0.00 | 0.00 | 0.00 | 80 | 1014.6 | |
| 20260906110546 | 77 | 0.0 | 0.0 | 0.00 | 0.00 | 0.00 | 81 | 1014.7 | |
| 20260906110044 | 78 | 0.0 | 1.7 | 0.00 | 0.00 | 0.00 | 80 | 1014.5 | |
| 20260906105543 | 78 | 225 | 0.9 | 2.6 | 0.00 | 0.00 | 0.00 | 79 | 1014.4 |
| 20260906105040 | 78 | 225 | 0.9 | 1.7 | 0.00 | 0.00 | 0.00 | 80 | 1014.4 |
| 20260906104540 | 78 | 225 | 1.7 | 3.5 | 0.00 | 0.00 | 0.00 | 79 | 1014.5 |
| 20260906104040 | 78 | 225 | 2.6 | 3.5 | 0.00 | 0.00 | 0.00 | 79 | 1014.5 |
| 20260906103536 | 78 | 225 | 2.6 | 3.5 | 0.00 | 0.00 | 0.00 | 79 | 1014.4 |
| 20260906103034 | 78 | 225 | 1.7 | 2.6 | 0.00 | 0.00 | 0.00 | 80 | 1014.4 |
| 20260906102535 | 78 | 0.0 | 1.7 | 0.00 | 0.00 | 0.00 | 78 | 1014.3 | |
| 20260906102032 | 78 | 0.0 | 0.9 | 0.00 | 0.00 | 0.00 | 78 | 1014.2 | |
| 20260906101541 | 78 | 0.0 | 0.0 | 0.00 | 0.00 | 0.00 | 78 | 1014.1 | |
| 20260906101021 | 79 | 225 | 0.9 | 1.7 | 0.00 | 0.00 | 0.00 | 77 | 1014.1 |
| 20260906100521 | 79 | 0.0 | 1.7 | 0.00 | 0.00 | 0.00 | 77 | 1014.1 | |
| 20260906100024 | 79 | 225 | 0.9 | 1.7 | 0.00 | 0.00 | 0.00 | 77 | 1014.2 |
| 20260906095601 | 79 | 225 | 1.7 | 2.6 | 0.00 | 0.00 | 0.00 | 77 | 1014.2 |
| 20260906095021 | 79 | 225 | 0.9 | 2.6 | 0.00 | 0.00 | 0.00 | 77 | 1014.2 |
| 20260906094522 | 79 | 225 | 0.9 | 2.6 | 0.00 | 0.00 | 0.00 | 77 | 1014.0 |
| 20260906094021 | 79 | 0.0 | 0.0 | 0.00 | 0.00 | 0.00 | 77 | 1014.0 | |
| 20260906093522 | 80 | 0.0 | 0.0 | 0.00 | 0.00 | 0.00 | 76 | 1014.0 | |
| 20260906093021 | 80 | 0.0 | 0.0 | 0.00 | 0.00 | 0.00 | 76 | 1014.0 | |
| 20260906092522 | 80 | 0.0 | 1.7 | 0.00 | 0.00 | 0.00 | 74 | 1014.0 | |
| 20260906092041 | 80 | 225 | 0.9 | 2.6 | 0.00 | 0.00 | 0.00 | 74 | 1013.9 |
| 20260906091607 | 80 | 225 | 2.6 | 3.5 | 0.00 | 0.00 | 0.00 | 74 | 1013.9 |
| 20260906091107 | 80 | 225 | 2.6 | 3.5 | 0.00 | 0.00 | 0.00 | 74 | 1014.1 |
| 20260906090605 | 80 | 225 | 1.7 | 2.6 | 0.00 | 0.00 | 0.00 | 74 | 1014.1 |
| 20260906090107 | 81 | 0.0 | 0.0 | 0.00 | 0.00 | 0.00 | 74 | 1014.1 | |
| 20260906085602 | 81 | 0.0 | 0.0 | 0.00 | 0.00 | 0.00 | 74 | 1014.1 | |
| 20260906085121 | 81 | 0.0 | 0.0 | 0.00 | 0.00 | 0.00 | 74 | 1014.1 | |
| 20260906084559 | 81 | 0.0 | 0.9 | 0.00 | 0.00 | 0.00 | 72 | 1014.1 | |
| 20260906084049 | 81 | 0.0 | 0.9 | 0.00 | 0.00 | 0.00 | 72 | 1014.0 | |
| 20260906083556 | 81 | 225 | 1.7 | 2.6 | 0.00 | 0.00 | 0.00 | 71 | 1013.9 |
| 20260906083053 | 81 | 225 | 2.6 | 4.3 | 0.00 | 0.00 | 0.00 | 71 | 1013.9 |
| 20260906082551 | 81 | 225 | 2.6 | 3.5 | 0.00 | 0.00 | 0.00 | 71 | 1013.9 |
| 20260906082112 | 81 | 225 | 2.6 | 3.5 | 0.00 | 0.00 | 0.00 | 72 | 1014.0 |
| 20260906081556 | 81 | 225 | 1.7 | 3.5 | 0.00 | 0.00 | 0.00 | 72 | 1013.9 |
| 20260906081045 | 81 | 225 | 0.9 | 1.7 | 0.00 | 0.00 | 0.00 | 72 | 1013.9 |
| 20260906080735 | 81 | 225 | 0.9 | 1.7 | 0.00 | 0.00 | 0.00 | 72 | 1013.9 |
| 20260906080023 | 81 | 0.0 | 0.9 | 0.00 | 0.00 | 0.00 | 72 | 1013.9 | |
| 20260906075522 | 82 | 0.0 | 0.9 | 0.00 | 0.00 | 0.00 | 71 | 1013.8 | |
| 20260906075109 | 82 | 0.0 | 1.7 | 0.00 | 0.00 | 0.00 | 71 | 1013.7 | |
| 20260906074608 | 82 | 225 | 0.9 | 2.6 | 0.00 | 0.00 | 0.00 | 71 | 1013.6 |
| 20260906074056 | 82 | 225 | 1.7 | 3.5 | 0.00 | 0.00 | 0.00 | 71 | 1013.5 |
| 20260906073524 | 81 | 225 | 0.9 | 3.5 | 0.00 | 0.00 | 0.00 | 71 | 1013.6 |
| 20260906073033 | 82 | 0.0 | 1.7 | 0.00 | 0.00 | 0.00 | 73 | 1013.7 | |
| 20260906072532 | 82 | 0.0 | 0.9 | 0.00 | 0.00 | 0.00 | 73 | 1013.7 | |
| 20260906072033 | 82 | 225 | 0.9 | 1.7 | 0.00 | 0.00 | 0.00 | 73 | 1013.8 |
| 20260906071543 | 82 | 0.0 | 0.9 | 0.00 | 0.00 | 0.00 | 72 | 1013.8 | |
| 20260906071022 | 82 | 225 | 0.9 | 3.5 | 0.00 | 0.00 | 0.00 | 69 | 1013.7 |
| 20260906070547 | 82 | 225 | 0.9 | 2.6 | 0.00 | 0.00 | 0.00 | 69 | 1013.7 |
| 20260906070339 | 82 | 225 | 1.7 | 3.5 | 0.00 | 0.00 | 0.00 | 69 | 1013.8 |
| 20260906065543 | 82 | 225 | 2.6 | 3.5 | 0.00 | 0.00 | 0.00 | 69 | 1013.9 |
| 20260906065023 | 82 | 225 | 1.7 | 3.5 | 0.00 | 0.00 | 0.00 | 69 | 1013.9 |
| 20260906064543 | 83 | 225 | 0.9 | 1.7 | 0.00 | 0.00 | 0.00 | 68 | 1014.0 |
| 20260906064022 | 83 | 225 | 0.9 | 2.6 | 0.00 | 0.00 | 0.00 | 68 | 1014.0 |
| 20260906063609 | 83 | 225 | 0.9 | 1.7 | 0.00 | 0.00 | 0.00 | 68 | 1014.1 |
| 20260906063109 | 83 | 225 | 0.9 | 2.6 | 0.00 | 0.00 | 0.00 | 68 | 1014.0 |
| 20260906062535 | 83 | 0.0 | 0.0 | 0.00 | 0.00 | 0.00 | 69 | 1014.1 | |
| 20260906062037 | 83 | 0.0 | 0.9 | 0.00 | 0.00 | 0.00 | 68 | 1014.2 | |
| 20260906061555 | 83 | 0.0 | 0.9 | 0.00 | 0.00 | 0.00 | 68 | 1014.2 | |
| 20260906061032 | 83 | 0.0 | 0.9 | 0.00 | 0.00 | 0.00 | 69 | 1014.2 | |
| 20260906060613 | 83 | 0.0 | 0.0 | 0.00 | 0.00 | 0.00 | 69 | 1014.1 | |
| 20260906055522 | 84 | 0.0 | 0.9 | 0.00 | 0.00 | 0.00 | 68 | 1014.1 | |
| 20260906055042 | 84 | 0.0 | 1.7 | 0.00 | 0.00 | 0.00 | 67 | 1014.0 | |
| 20260906054522 | 84 | 0.0 | 0.0 | 0.00 | 0.00 | 0.00 | 66 | 1014.0 | |
| 20260906054042 | 85 | 0.0 | 0.9 | 0.00 | 0.00 | 0.00 | 66 | 1014.1 | |
| 20260906053523 | 85 | 0.0 | 1.7 | 0.00 | 0.00 | 0.00 | 66 | 1014.0 | |
| 20260906053023 | 85 | 0.0 | 1.7 | 0.00 | 0.00 | 0.00 | 65 | 1014.0 | |
| 20260906052523 | 86 | 225 | 0.9 | 1.7 | 0.00 | 0.00 | 0.00 | 64 | 1014.1 |
| 20260906052022 | 86 | 225 | 0.9 | 1.7 | 0.00 | 0.00 | 0.00 | 62 | 1014.1 |
| 20260906051543 | 86 | 225 | 0.9 | 2.6 | 0.00 | 0.00 | 0.00 | 62 | 1014.0 |
| 20260906051022 | 86 | 225 | 0.9 | 2.6 | 0.00 | 0.00 | 0.00 | 62 | 1014.0 |
| 20260906050609 | 87 | 225 | 2.6 | 4.3 | 0.00 | 0.00 | 0.00 | 62 | 1014.0 |
| 20260906050112 | 87 | 203 | 2.6 | 4.3 | 0.00 | 0.00 | 0.00 | 61 | 1013.9 |
| 20260906045557 | 87 | 203 | 3.5 | 7.0 | 0.00 | 0.00 | 0.00 | 61 | 1013.9 |
| 20260906045126 | 87 | 225 | 3.5 | 7.0 | 0.00 | 0.00 | 0.00 | 61 | 1014.0 |
| 20260906044604 | 87 | 225 | 3.5 | 7.0 | 0.00 | 0.00 | 0.00 | 60 | 1014.0 |
| 20260906044103 | 87 | 203 | 2.6 | 5.2 | 0.00 | 0.00 | 0.00 | 60 | 1014.1 |
| 20260906043553 | 87 | 203 | 4.3 | 9.6 | 0.00 | 0.00 | 0.00 | 60 | 1014.1 |
| 20260906043023 | 87 | 203 | 4.3 | 11.3 | 0.00 | 0.00 | 0.00 | 60 | 1014.1 |
| 20260906042542 | 87 | 203 | 4.3 | 9.6 | 0.00 | 0.00 | 0.00 | 60 | 1014.1 |
| 20260906042022 | 87 | 203 | 4.3 | 9.6 | 0.00 | 0.00 | 0.00 | 60 | 1014.1 |
| 20260906041523 | 87 | 203 | 4.3 | 10.4 | 0.00 | 0.00 | 0.00 | 60 | 1014.0 |
| 20260906041023 | 87 | 203 | 4.3 | 7.8 | 0.00 | 0.00 | 0.00 | 60 | 1014.1 |
| 20260906040522 | 87 | 180 | 3.5 | 7.0 | 0.00 | 0.00 | 0.00 | 60 | 1014.1 |
| 20260906040049 | 87 | 203 | 2.6 | 7.0 | 0.00 | 0.00 | 0.00 | 60 | 1014.0 |
| 20260906035548 | 87 | 158 | 1.7 | 5.2 | 0.00 | 0.00 | 0.00 | 59 | 1014.1 |
| 20260906035047 | 86 | 158 | 1.7 | 4.3 | 0.00 | 0.00 | 0.00 | 58 | 1014.0 |
| 20260906034605 | 86 | 158 | 2.6 | 4.3 | 0.00 | 0.00 | 0.00 | 59 | 1014.0 |
| 20260906034030 | 86 | 180 | 1.7 | 4.3 | 0.00 | 0.00 | 0.00 | 60 | 1013.9 |
| 20260906033559 | 86 | 203 | 1.7 | 4.3 | 0.00 | 0.00 | 0.00 | 59 | 1013.8 |
| 20260906033039 | 86 | 203 | 1.7 | 5.2 | 0.00 | 0.00 | 0.00 | 59 | 1013.8 |
| 20260906032537 | 86 | 203 | 0.9 | 2.6 | 0.00 | 0.00 | 0.00 | 60 | 1013.8 |
| 20260906032035 | 86 | 203 | 0.9 | 1.7 | 0.00 | 0.00 | 0.00 | 58 | 1013.6 |
| 20260906031537 | 86 | 203 | 0.9 | 1.7 | 0.00 | 0.00 | 0.00 | 59 | 1013.5 |
| 20260906031032 | 86 | 0.0 | 0.0 | 0.00 | 0.00 | 0.00 | 59 | 1013.4 | |
| 20260906030522 | 87 | 0.0 | 0.0 | 0.00 | 0.00 | 0.00 | 62 | 1013.5 | |
| 20260906030034 | 87 | 0.0 | 0.0 | 0.00 | 0.00 | 0.00 | 62 | 1013.5 | |
| 20260906025523 | 87 | 0.0 | 0.0 | 0.00 | 0.00 | 0.00 | 60 | 1013.5 | |
| 20260906025022 | 87 | 0.0 | 0.9 | 0.00 | 0.00 | 0.00 | 59 | 1013.5 | |
| 20260906024522 | 88 | 0.0 | 0.0 | 0.00 | 0.00 | 0.00 | 56 | 1013.5 | |
| 20260906024022 | 88 | 0.0 | 0.0 | 0.00 | 0.00 | 0.00 | 55 | 1013.4 | |
| 20260906023522 | 88 | 0.0 | 0.0 | 0.00 | 0.00 | 0.00 | 55 | 1013.2 | |
| 20260906023022 | 89 | 0.0 | 0.0 | 0.00 | 0.00 | 0.00 | 56 | 1013.1 | |
| 20260906022542 | 89 | 203 | 0.9 | 1.7 | 0.00 | 0.00 | 0.00 | 53 | 1013.1 |
| 20260906022022 | 89 | 0.0 | 1.7 | 0.00 | 0.00 | 0.00 | 52 | 1012.9 | |
| 20260906021542 | 90 | 0.0 | 1.7 | 0.00 | 0.00 | 0.00 | 52 | 1012.9 | |
| 20260906021238 | 90 | 203 | 0.9 | 2.6 | 0.00 | 0.00 | 0.00 | 52 | 1012.8 |
| 20260906020559 | 90 | 203 | 1.7 | 2.6 | 0.00 | 0.00 | 0.00 | 51 | 1012.8 |
| 20260906020041 | 91 | 203 | 1.7 | 2.6 | 0.00 | 0.00 | 0.00 | 50 | 1012.7 |
| 20260906015538 | 91 | 203 | 1.7 | 4.3 | 0.00 | 0.00 | 0.00 | 50 | 1012.6 |
| 20260906015043 | 91 | 203 | 1.7 | 3.5 | 0.00 | 0.00 | 0.00 | 50 | 1012.5 |
| 20260906014533 | 91 | 203 | 1.7 | 3.5 | 0.00 | 0.00 | 0.00 | 50 | 1012.4 |
| 20260906014023 | 92 | 203 | 1.7 | 3.5 | 0.00 | 0.00 | 0.00 | 49 | 1012.3 |
| 20260906013533 | 92 | 203 | 1.7 | 3.5 | 0.00 | 0.00 | 0.00 | 49 | 1012.3 |
| 20260906013042 | 92 | 203 | 2.6 | 4.3 | 0.00 | 0.00 | 0.00 | 48 | 1012.3 |
| 20260906012522 | 93 | 203 | 1.7 | 3.5 | 0.00 | 0.00 | 0.00 | 48 | 1012.1 |
| 20260906012118 | 93 | 203 | 2.6 | 3.5 | 0.00 | 0.00 | 0.00 | 47 | 1012.1 |
| 20260906011555 | 93 | 203 | 2.6 | 4.3 | 0.00 | 0.00 | 0.00 | 47 | 1012.0 |
| 20260906011051 | 94 | 225 | 2.6 | 4.3 | 0.00 | 0.00 | 0.00 | 46 | 1012.0 |
| 20260906010549 | 94 | 203 | 1.7 | 3.5 | 0.00 | 0.00 | 0.00 | 46 | 1012.0 |
| 20260906010107 | 95 | 203 | 1.7 | 3.5 | 0.00 | 0.00 | 0.00 | 45 | 1012.0 |
| 20260906005547 | 95 | 180 | 1.7 | 3.5 | 0.00 | 0.00 | 0.00 | 45 | 1012.0 |
| 20260906005107 | 95 | 180 | 2.6 | 6.1 | 0.00 | 0.00 | 0.00 | 44 | 1011.9 |
| 20260906004533 | 96 | 203 | 1.7 | 4.3 | 0.00 | 0.00 | 0.00 | 44 | 1011.9 |
| 20260906004022 | 96 | 203 | 1.7 | 4.3 | 0.00 | 0.00 | 0.00 | 43 | 1011.9 |
| 20260906003541 | 96 | 203 | 2.6 | 5.2 | 0.00 | 0.00 | 0.00 | 43 | 1011.9 |
| 20260906003037 | 97 | 203 | 2.6 | 5.2 | 0.00 | 0.00 | 0.00 | 42 | 1011.9 |
| 20260906002537 | 97 | 203 | 2.6 | 5.2 | 0.00 | 0.00 | 0.00 | 43 | 1012.0 |
| 20260906002035 | 97 | 158 | 2.6 | 5.2 | 0.00 | 0.00 | 0.00 | 42 | 1011.9 |
| 20260906001541 | 98 | 158 | 3.5 | 7.0 | 0.00 | 0.00 | 0.00 | 41 | 1012.0 |
| 20260906001034 | 98 | 225 | 2.6 | 8.7 | 0.00 | 0.00 | 0.00 | 41 | 1011.9 |
| 20260906000521 | 99 | 203 | 2.6 | 5.2 | 0.00 | 0.00 | 0.00 | 40 | 1011.8 |
| 20260906000022 | 99 | 225 | 1.7 | 4.3 | 0.00 | 0.00 | 0.00 | 40 | 1011.8 |
| 20260905235522 | 100 | 135 | 2.6 | 7.8 | 0.00 | 0.00 | 0.00 | 40 | 1011.9 |
| 20260905235042 | 101 | 158 | 2.6 | 7.0 | 0.00 | 0.00 | 0.00 | 39 | 1011.9 |
| 20260905234522 | 101 | 158 | 4.3 | 8.7 | 0.00 | 0.00 | 0.00 | 38 | 1011.8 |
| 20260905234022 | 101 | 135 | 3.5 | 7.8 | 0.00 | 0.00 | 0.00 | 39 | 1011.8 |
| 20260905233548 | 101 | 158 | 4.3 | 9.6 | 0.00 | 0.00 | 0.00 | 39 | 1011.8 |
| 20260905233048 | 101 | 158 | 4.3 | 8.7 | 0.00 | 0.00 | 0.00 | 39 | 1011.7 |
| 20260905232547 | 101 | 135 | 3.5 | 7.8 | 0.00 | 0.00 | 0.00 | 37 | 1011.7 |
| 20260905232045 | 101 | 158 | 3.5 | 9.6 | 0.00 | 0.00 | 0.00 | 39 | 1011.8 |
| 20260905231522 | 100 | 158 | 3.5 | 6.1 | 0.00 | 0.00 | 0.00 | 39 | 1011.8 |
| 20260905231237 | 100 | 225 | 4.3 | 7.0 | 0.00 | 0.00 | 0.00 | 38 | 1011.7 |
| 20260905230559 | 101 | 203 | 3.5 | 8.7 | 0.00 | 0.00 | 0.00 | 39 | 1011.8 |
| 20260905230038 | 101 | 203 | 5.2 | 9.6 | 0.00 | 0.00 | 0.00 | 37 | 1011.7 |
| 20260905225527 | 102 | 158 | 3.5 | 7.8 | 0.00 | 0.00 | 0.00 | 37 | 1011.7 |
| 20260905225035 | 101 | 225 | 2.6 | 7.8 | 0.00 | 0.00 | 0.00 | 38 | 1011.7 |
| 20260905224533 | 102 | 203 | 3.5 | 8.7 | 0.00 | 0.00 | 0.00 | 36 | 1011.8 |
| 20260905224109 | 101 | 135 | 6.1 | 11.3 | 0.00 | 0.00 | 0.00 | 38 | 1011.8 |